Regional Weather Roundup
Issued by NWS Midland/Odessa, TX

Skip options and go directly to product.
Home | Oldest Version | Previous Version | Current Version | All | Text Only | Save Text | Print | Product List | Glossary On

Skip product version selection by date and time.   
528
ASUS44 KMAF 311101
RWRMAF
MIDLAND AREA WEATHER ROUNDUP
NATIONAL WEATHER SERVICE MIDLAND TX
600 AM CDT MON AUG 31 2015

...IN SOUTHWEST TEXAS AND SOUTHEAST NEW MEXICO...

CITY           SKY/WX    TMP DP  RH WIND       PRES   REMARKS
ALPINE         CLEAR     59  50  71 SW7       30.17R
ANDREWS        FAIR      66  57  72 SW5       30.05S
ARTESIA        CLEAR     63  52  67 S7        30.05S
BIG SPRING     CLEAR     63  55  75 SE7       30.06S
CARLSBAD       CLEAR     63  48  58 S7        30.01F
DRYDEN           N/A     70  59  68 NW8       30.00R
FORT STOCKTON  CLEAR     68  56  65 S10       30.03R
GUAD PASS      CLEAR     70  46  42 NE5       30.17S
HOBBS            N/A     61  61 100 S7        30.07F
MARFA          CLEAR     52  46  82 N6        30.15R
MIDLAND AIRPK  CLEAR     70  58  65 S6        30.05R
MIDLAND INTL   CLEAR     68  57  68 S9        30.04R
ODESSA         CLEAR     66  56  70 SE5       30.05R
PECOS          CLEAR     66  55  67 E7        30.00S
PRESIDIO       NOT AVBL
SEMINOLE       CLEAR     62  55  77 W5        30.07R
SNYDER         CLEAR     63  57  80 S7        30.04R
WINK           CLEAR     66  58  75 E3        30.02R
$$
...OTHER STATIONS IN TEXAS...

CITY           SKY/WX    TMP DP  RH WIND       PRES   REMARKS
ABILENE        CLEAR     70  59  68 S7        30.01R
AMARILLO       CLEAR     61  53  75 S12       30.02S
AUSTIN         PTCLDY    70  68  93 CALM      29.99R
BROWNSVILLE    LGT RAIN  77  75  93 SE17      29.94R
CORPUS CHRISTI MOCLDY    77  72  84 CALM      29.94S
DALLAS FTW     MOCLDY    77  65  66 S8        29.98R
DEL RIO        PTCLDY    77  67  71 E8        29.95R
EL PASO        CLEAR     71  51  49 SE3       30.04R
HOUSTON INT    PTCLDY    71  69  93 CALM      29.98S
LUBBOCK        CLEAR     64  56  75 SW7       30.05R
SAN ANGELO     CLEAR     64  60  87 SW6       30.02R
SAN ANTONIO    MOCLDY    77  71  82 S5        29.99S
WACO           PTCLDY    73  68  84 S6        29.99R
WICHITA FALLS  NOT AVBL
$$
...OTHER LOCATIONS IN NEW MEXICO...

CITY           SKY/WX    TMP DP  RH WIND       PRES   REMARKS
ALAMAGORDO     CLEAR     64  50  59 CALM      30.08R
ALBUQUERQUE    PTCLDY    69  49  48 S3        30.15R
CANNON AFB     CLEAR     63  52  67 W9        30.07F
CLOVIS         CLEAR     59  50  72 SW7       30.08S
HOLLOMAN AFB   CLEAR     67  50  54 E5        30.05S
ROSWELL        CLEAR     63  52  67 S6        30.04S
RUIDOSO        CLEAR     59  43  55 MISG      30.25F
SANTA FE       CLEAR     59  46  62 W3        30.18S
TRUTH OR CONSE CLEAR     69  50  50 W9        30.10S
TUCUMCARI      CLEAR     69  50  50 SW9       30.01F
$$

USA.gov is the U.S. government's official web portal to all federal, state and local government web resources and services.